Year,Month,Day,Hour,Minute,Value (Times are PST for temperature in C)
2013,08,25,00,00,14.10
2013,08,25,00,01,14.20
2013,08,25,00,02,14.20
2013,08,25,00,03,14.20
2013,08,25,00,04,14.20
2013,08,25,00,05,14.20
2013,08,25,00,06,14.20
2013,08,25,00,07,14.20
2013,08,25,00,08,14.20
2013,08,25,00,09,14.20
2013,08,25,00,10,14.20
2013,08,25,00,11,14.10
2013,08,25,00,12,14.10
2013,08,25,00,13,14.00
2013,08,25,00,14,13.90
2013,08,25,00,15,13.90
2013,08,25,00,16,13.80
2013,08,25,00,17,13.80
2013,08,25,00,18,13.80
2013,08,25,00,19,13.70
2013,08,25,00,20,13.70
2013,08,25,00,21,13.70
2013,08,25,00,22,13.70
2013,08,25,00,23,13.70
2013,08,25,00,24,13.70
2013,08,25,00,25,13.70
2013,08,25,00,26,13.70
2013,08,25,00,27,13.70
2013,08,25,00,28,13.60
2013,08,25,00,29,13.60
2013,08,25,00,30,13.60
2013,08,25,00,31,13.60
2013,08,25,00,32,13.60
2013,08,25,00,33,13.50
2013,08,25,00,34,13.50
2013,08,25,00,35,13.50
2013,08,25,00,36,13.50
2013,08,25,00,37,13.50
2013,08,25,00,38,13.50
2013,08,25,00,39,13.40
2013,08,25,00,40,13.40
2013,08,25,00,41,13.40
2013,08,25,00,42,13.40
2013,08,25,00,43,13.30
2013,08,25,00,44,13.30
2013,08,25,00,45,13.30
2013,08,25,00,46,13.30
2013,08,25,00,47,13.30
2013,08,25,00,48,13.30
2013,08,25,00,49,13.20
2013,08,25,00,50,13.20
2013,08,25,00,51,13.20
2013,08,25,00,52,13.20
2013,08,25,00,53,13.20
2013,08,25,00,54,13.10
2013,08,25,00,55,13.10
2013,08,25,00,56,13.10
2013,08,25,00,57,13.10
2013,08,25,00,58,13.00
2013,08,25,00,59,13.00
2013,08,25,01,00,13.00
2013,08,25,01,01,13.00
2013,08,25,01,02,13.00
2013,08,25,01,03,13.00
2013,08,25,01,04,13.00
2013,08,25,01,05,13.00
2013,08,25,01,06,13.00
2013,08,25,01,07,13.00
2013,08,25,01,08,13.00
2013,08,25,01,09,13.00
2013,08,25,01,10,13.00
2013,08,25,01,11,13.10
2013,08,25,01,12,13.10
2013,08,25,01,13,13.10
2013,08,25,01,14,13.10
2013,08,25,01,15,13.10
2013,08,25,01,16,13.10
2013,08,25,01,17,13.00
2013,08,25,01,18,13.00
2013,08,25,01,19,13.00
2013,08,25,01,20,12.90
2013,08,25,01,21,12.90
2013,08,25,01,22,12.90
2013,08,25,01,23,12.90
2013,08,25,01,24,12.90
2013,08,25,01,25,12.80
2013,08,25,01,26,12.90
2013,08,25,01,27,12.80
2013,08,25,01,28,12.80
2013,08,25,01,29,12.80
2013,08,25,01,30,12.80
2013,08,25,01,31,12.80
2013,08,25,01,32,12.90
2013,08,25,01,33,12.90
2013,08,25,01,34,12.90
2013,08,25,01,35,12.80
2013,08,25,01,36,12.80
2013,08,25,01,37,12.80
2013,08,25,01,38,12.80
2013,08,25,01,39,12.80
2013,08,25,01,40,12.80
2013,08,25,01,41,12.80
2013,08,25,01,42,12.80
2013,08,25,01,43,12.80
2013,08,25,01,44,12.80
2013,08,25,01,45,12.80
2013,08,25,01,46,12.80
2013,08,25,01,47,12.90
2013,08,25,01,48,12.80
2013,08,25,01,49,12.80
2013,08,25,01,50,12.80
2013,08,25,01,51,12.80
2013,08,25,01,52,12.80
2013,08,25,01,53,12.80
2013,08,25,01,54,12.70
2013,08,25,01,55,12.70
2013,08,25,01,56,12.70
2013,08,25,01,57,12.70
2013,08,25,01,58,12.60
2013,08,25,01,59,12.60
2013,08,25,02,00,12.60
2013,08,25,02,01,12.60
2013,08,25,02,02,12.50
2013,08,25,02,03,12.50
2013,08,25,02,04,12.40
2013,08,25,02,05,12.40
2013,08,25,02,06,12.40
2013,08,25,02,07,12.30
2013,08,25,02,08,12.30
2013,08,25,02,09,12.30
2013,08,25,02,10,12.30
2013,08,25,02,11,12.30
2013,08,25,02,12,12.30
2013,08,25,02,13,12.30
2013,08,25,02,14,12.30
2013,08,25,02,15,12.30
2013,08,25,02,16,12.20
2013,08,25,02,17,12.20
2013,08,25,02,18,12.10
2013,08,25,02,19,12.00
2013,08,25,02,20,12.00
2013,08,25,02,21,12.00
2013,08,25,02,22,12.00
2013,08,25,02,23,12.00
2013,08,25,02,24,12.00
2013,08,25,02,25,12.10
2013,08,25,02,26,12.20
2013,08,25,02,27,12.30
2013,08,25,02,28,12.30
2013,08,25,02,29,12.40
2013,08,25,02,30,12.40
2013,08,25,02,31,12.30
2013,08,25,02,32,12.30
2013,08,25,02,33,12.30
2013,08,25,02,34,12.20
2013,08,25,02,35,12.20
2013,08,25,02,36,12.20
2013,08,25,02,37,12.20
2013,08,25,02,38,12.30
2013,08,25,02,39,12.30
2013,08,25,02,40,12.30
2013,08,25,02,41,12.40
2013,08,25,02,42,12.40
2013,08,25,02,43,12.40
2013,08,25,02,44,12.40
2013,08,25,02,45,12.30
2013,08,25,02,46,12.30
2013,08,25,02,47,12.30
2013,08,25,02,48,12.30
2013,08,25,02,49,12.40
2013,08,25,02,50,12.40
2013,08,25,02,51,12.50
2013,08,25,02,52,12.50
2013,08,25,02,53,12.50
2013,08,25,02,54,12.50
2013,08,25,02,55,12.50
2013,08,25,02,56,12.50
2013,08,25,02,57,12.50
2013,08,25,02,58,12.50
2013,08,25,02,59,12.50
2013,08,25,03,00,12.50
2013,08,25,03,01,12.50
2013,08,25,03,02,12.50
2013,08,25,03,03,12.60
2013,08,25,03,06,12.70
2013,08,25,03,07,12.70
2013,08,25,03,08,12.70
2013,08,25,03,09,12.70
2013,08,25,03,10,12.80
2013,08,25,03,11,12.80
2013,08,25,03,12,12.80
2013,08,25,03,13,12.80
2013,08,25,03,14,12.80
2013,08,25,03,15,12.80
2013,08,25,03,16,12.80
2013,08,25,03,17,12.70
2013,08,25,03,18,12.70
2013,08,25,03,19,12.60
2013,08,25,03,20,12.60
2013,08,25,03,21,12.60
2013,08,25,03,22,12.50
2013,08,25,03,23,12.50
2013,08,25,03,24,12.50
2013,08,25,03,25,12.40
2013,08,25,03,26,12.30
2013,08,25,03,27,12.30
2013,08,25,03,28,12.20
2013,08,25,03,29,12.10
2013,08,25,03,30,12.10
2013,08,25,03,31,12.00
2013,08,25,03,32,11.90
2013,08,25,03,33,11.90
2013,08,25,03,34,11.90
2013,08,25,03,35,11.80
2013,08,25,03,36,11.80
2013,08,25,03,37,11.80
2013,08,25,03,38,11.80
2013,08,25,03,39,11.80
2013,08,25,03,40,11.90
2013,08,25,03,41,11.90
2013,08,25,03,42,11.90
2013,08,25,03,43,11.90
2013,08,25,03,44,11.90
2013,08,25,03,45,11.90
2013,08,25,03,46,11.90
2013,08,25,03,47,11.90
2013,08,25,03,48,12.00
2013,08,25,03,49,12.00
2013,08,25,03,50,12.00
2013,08,25,03,51,12.10
2013,08,25,03,52,12.10
2013,08,25,03,53,12.10
2013,08,25,03,54,12.10
2013,08,25,03,55,12.10
2013,08,25,03,56,12.10
2013,08,25,03,57,12.10
2013,08,25,03,58,12.10
2013,08,25,03,59,12.10
2013,08,25,04,00,12.10
2013,08,25,04,01,12.10
2013,08,25,04,02,12.10
2013,08,25,04,03,12.10
2013,08,25,04,04,12.10
2013,08,25,04,05,12.10
2013,08,25,04,06,12.10
2013,08,25,04,07,12.10
2013,08,25,04,08,12.10
2013,08,25,04,09,12.10
2013,08,25,04,10,12.10
2013,08,25,04,11,12.00
2013,08,25,04,12,12.00
2013,08,25,04,13,12.00
2013,08,25,04,14,12.00
2013,08,25,04,15,12.00
2013,08,25,04,16,12.00
2013,08,25,04,17,12.00
2013,08,25,04,18,11.90
2013,08,25,04,19,11.90
2013,08,25,04,20,11.90
2013,08,25,04,21,11.90
2013,08,25,04,22,11.90
2013,08,25,04,23,11.90
2013,08,25,04,24,11.90
2013,08,25,04,25,11.90
2013,08,25,04,26,11.90
2013,08,25,04,27,11.90
2013,08,25,04,28,12.00
2013,08,25,04,29,12.00
2013,08,25,04,30,12.00
2013,08,25,04,31,12.00
2013,08,25,04,32,12.00
2013,08,25,04,33,12.00
2013,08,25,04,34,12.10
2013,08,25,04,35,12.10
2013,08,25,04,36,12.10
2013,08,25,04,37,12.10
2013,08,25,04,38,12.00
2013,08,25,04,39,12.10
2013,08,25,04,40,12.10
2013,08,25,04,41,12.10
2013,08,25,04,42,12.10
2013,08,25,04,43,12.10
2013,08,25,04,44,12.10
2013,08,25,04,45,12.10
2013,08,25,04,46,12.00
2013,08,25,04,47,12.00
2013,08,25,04,48,11.90
2013,08,25,04,49,11.90
2013,08,25,04,50,11.80
2013,08,25,04,51,11.80
2013,08,25,04,52,11.80
2013,08,25,04,53,11.80
2013,08,25,04,54,11.70
2013,08,25,04,55,11.70
2013,08,25,04,56,11.60
2013,08,25,04,57,11.50
2013,08,25,04,58,11.50
2013,08,25,04,59,11.50
2013,08,25,05,00,11.40
2013,08,25,05,01,11.40
2013,08,25,05,02,11.30
2013,08,25,05,03,11.30
2013,08,25,05,04,11.20
2013,08,25,05,05,11.20
2013,08,25,05,06,11.10
2013,08,25,05,07,11.10
2013,08,25,05,08,11.10
2013,08,25,05,09,11.10
2013,08,25,05,10,11.10
2013,08,25,05,11,11.10
2013,08,25,05,12,11.00
2013,08,25,05,13,11.00
2013,08,25,05,14,10.90
2013,08,25,05,15,10.90
2013,08,25,05,16,10.80
2013,08,25,05,17,10.80
2013,08,25,05,18,10.70
2013,08,25,05,19,10.70
2013,08,25,05,20,10.60
2013,08,25,05,21,10.60
2013,08,25,05,22,10.50
2013,08,25,05,23,10.50
2013,08,25,05,24,10.60
2013,08,25,05,25,10.60
2013,08,25,05,26,10.60
2013,08,25,05,27,10.70
2013,08,25,05,28,10.70
2013,08,25,05,29,10.70
2013,08,25,05,30,10.70
2013,08,25,05,31,10.70
2013,08,25,05,32,10.70
2013,08,25,05,33,10.80
2013,08,25,05,34,10.80
2013,08,25,05,35,10.80
2013,08,25,05,36,10.80
2013,08,25,05,37,10.80
2013,08,25,05,38,10.90
2013,08,25,05,39,10.90
2013,08,25,05,40,10.80
2013,08,25,05,41,10.80
2013,08,25,05,42,10.80
2013,08,25,05,43,10.80
2013,08,25,05,44,10.80
2013,08,25,05,45,10.70
2013,08,25,05,46,10.70
2013,08,25,05,47,10.70
2013,08,25,05,48,10.70
2013,08,25,05,49,10.70
2013,08,25,05,50,10.70
2013,08,25,05,51,10.70
2013,08,25,05,52,10.60
2013,08,25,05,53,10.60
2013,08,25,05,54,10.60
2013,08,25,05,55,10.60
2013,08,25,05,56,10.70
2013,08,25,05,57,10.70
2013,08,25,05,58,10.80
2013,08,25,05,59,10.80
2013,08,25,06,00,10.90
2013,08,25,06,01,10.90
2013,08,25,06,02,10.90
2013,08,25,06,03,11.00
2013,08,25,06,04,11.00
2013,08,25,06,05,11.00
2013,08,25,06,06,11.00
2013,08,25,06,07,11.00
2013,08,25,06,08,11.10
2013,08,25,06,09,11.10
2013,08,25,06,10,11.10
2013,08,25,06,11,11.10
2013,08,25,06,12,11.10
2013,08,25,06,13,11.10
2013,08,25,06,14,11.10
2013,08,25,06,15,11.10
2013,08,25,06,16,11.10
2013,08,25,06,17,11.10
2013,08,25,06,18,11.10
2013,08,25,06,19,11.20
2013,08,25,06,20,11.20
2013,08,25,06,21,11.20
2013,08,25,06,22,11.20
2013,08,25,06,23,11.20
2013,08,25,06,24,11.30
2013,08,25,06,25,11.30
2013,08,25,06,26,11.40
2013,08,25,06,27,11.40
2013,08,25,06,28,11.40
2013,08,25,06,29,11.40
2013,08,25,06,30,11.50
2013,08,25,06,31,11.50
2013,08,25,06,32,11.60
2013,08,25,06,33,11.60
2013,08,25,06,34,11.60
2013,08,25,06,35,11.70
2013,08,25,06,36,11.70
2013,08,25,06,37,11.70
2013,08,25,06,38,11.80
2013,08,25,06,39,11.80
2013,08,25,06,40,11.80
2013,08,25,06,41,11.80
2013,08,25,06,42,11.90
2013,08,25,06,43,11.90
2013,08,25,06,44,11.90
2013,08,25,06,45,11.90
2013,08,25,06,46,11.90
2013,08,25,06,47,11.90
2013,08,25,06,48,11.90
2013,08,25,06,49,11.90
2013,08,25,06,50,12.00
2013,08,25,06,51,12.00
2013,08,25,06,52,12.10
2013,08,25,06,53,12.10
2013,08,25,06,54,12.10
2013,08,25,06,55,12.20
2013,08,25,06,56,12.20
2013,08,25,06,57,12.20
2013,08,25,06,58,12.30
2013,08,25,06,59,12.30
2013,08,25,07,00,12.30
2013,08,25,07,01,12.30
2013,08,25,07,02,12.30
2013,08,25,07,03,12.30
2013,08,25,07,04,12.30
2013,08,25,07,05,12.30
2013,08,25,07,06,12.30
2013,08,25,07,07,12.30
2013,08,25,07,08,12.40
2013,08,25,07,09,12.40
2013,08,25,07,10,12.40
2013,08,25,07,11,12.40
2013,08,25,07,12,12.50
2013,08,25,07,13,12.50
2013,08,25,07,14,12.50
2013,08,25,07,15,12.60
2013,08,25,07,16,12.60
2013,08,25,07,17,12.60
2013,08,25,07,18,12.60
2013,08,25,07,19,12.70
2013,08,25,07,20,12.70
2013,08,25,07,21,12.70
2013,08,25,07,22,12.80
2013,08,25,07,23,12.80
2013,08,25,07,24,12.80
2013,08,25,07,25,12.90
2013,08,25,07,26,12.90
2013,08,25,07,27,12.90
2013,08,25,07,28,13.00
2013,08,25,07,29,13.00
2013,08,25,07,30,13.10
2013,08,25,07,31,13.10
2013,08,25,07,32,13.20
2013,08,25,07,33,13.20
2013,08,25,07,34,13.30
2013,08,25,07,35,13.30
2013,08,25,07,36,13.40
2013,08,25,07,37,13.50
2013,08,25,07,38,13.60
2013,08,25,07,39,13.60
2013,08,25,07,40,13.70
2013,08,25,07,41,13.80
2013,08,25,07,42,13.80
2013,08,25,07,43,13.90
2013,08,25,07,44,13.90
2013,08,25,07,45,14.00
2013,08,25,07,46,14.00
2013,08,25,07,47,14.10
2013,08,25,07,48,14.10
2013,08,25,07,49,14.20
2013,08,25,07,50,14.20
2013,08,25,07,51,14.30
2013,08,25,07,52,14.40
2013,08,25,07,53,14.40
2013,08,25,07,54,14.50
2013,08,25,07,55,14.60
2013,08,25,07,56,14.60
2013,08,25,07,57,14.60
2013,08,25,07,58,14.60
2013,08,25,07,59,14.60
2013,08,25,08,00,14.60
2013,08,25,08,01,14.60
2013,08,25,08,02,14.60
2013,08,25,08,03,14.60
2013,08,25,08,04,14.60
2013,08,25,08,05,14.60
2013,08,25,08,06,14.60
2013,08,25,08,07,14.60
2013,08,25,08,08,14.60
2013,08,25,08,09,14.70
2013,08,25,08,10,14.70
2013,08,25,08,11,14.70
2013,08,25,08,12,14.70
2013,08,25,08,13,14.70
2013,08,25,08,14,14.80
2013,08,25,08,15,14.80
2013,08,25,08,16,14.90
2013,08,25,08,17,15.00
2013,08,25,08,18,15.00
2013,08,25,08,19,15.00
2013,08,25,08,20,15.00
2013,08,25,08,21,15.00
2013,08,25,08,22,15.10
2013,08,25,08,23,15.20
2013,08,25,08,24,15.20
2013,08,25,08,25,15.30
2013,08,25,08,26,15.40
2013,08,25,08,27,15.40
2013,08,25,08,28,15.50
2013,08,25,08,29,15.50
2013,08,25,08,30,15.60
2013,08,25,08,31,15.70
2013,08,25,08,32,15.70
2013,08,25,08,33,15.70
2013,08,25,08,34,15.70
2013,08,25,08,35,15.70
2013,08,25,08,36,15.70
2013,08,25,08,37,15.70
2013,08,25,08,38,15.60
2013,08,25,08,39,15.50
2013,08,25,08,40,15.40
2013,08,25,08,41,15.40
2013,08,25,08,42,15.30
2013,08,25,08,43,15.30
2013,08,25,08,44,15.20
2013,08,25,08,45,15.10
2013,08,25,08,46,15.00
2013,08,25,08,47,15.00
2013,08,25,08,48,15.00
2013,08,25,08,49,15.00
2013,08,25,08,50,15.00
2013,08,25,08,51,14.90
2013,08,25,08,52,14.80
2013,08,25,08,53,14.80
2013,08,25,08,54,14.80
2013,08,25,08,55,14.80
2013,08,25,08,56,14.80
2013,08,25,08,57,14.80
2013,08,25,08,58,14.80
2013,08,25,08,59,14.80
2013,08,25,09,00,14.80
2013,08,25,09,01,14.80
2013,08,25,09,02,14.80
2013,08,25,09,03,14.80
2013,08,25,09,04,14.80
2013,08,25,09,05,14.90
2013,08,25,09,06,14.90
2013,08,25,09,07,15.00
2013,08,25,09,08,15.00
2013,08,25,09,09,15.00
2013,08,25,09,10,15.00
2013,08,25,09,11,15.00
2013,08,25,09,12,15.00
2013,08,25,09,13,15.00
2013,08,25,09,14,15.00
2013,08,25,09,15,15.00
2013,08,25,09,16,15.10
2013,08,25,09,17,15.10
2013,08,25,09,18,15.20
2013,08,25,09,19,15.20
2013,08,25,09,20,15.30
2013,08,25,09,21,15.30
2013,08,25,09,22,15.30
2013,08,25,09,23,15.40
2013,08,25,09,24,15.40
2013,08,25,09,25,15.40
2013,08,25,09,26,15.40
2013,08,25,09,27,15.50
2013,08,25,09,28,15.40
2013,08,25,09,29,15.40
2013,08,25,09,30,15.40
2013,08,25,09,31,15.40
2013,08,25,09,32,15.40
2013,08,25,09,33,15.40
2013,08,25,09,34,15.40
2013,08,25,09,35,15.50
2013,08,25,09,36,15.50
2013,08,25,09,37,15.60
2013,08,25,09,38,15.70
2013,08,25,09,39,15.80
2013,08,25,09,40,15.90
2013,08,25,09,41,16.00
2013,08,25,09,42,16.10
2013,08,25,09,43,16.20
2013,08,25,09,44,16.30
2013,08,25,09,45,16.30
2013,08,25,09,46,16.40
2013,08,25,09,47,16.50
2013,08,25,09,48,16.50
2013,08,25,09,49,16.60
2013,08,25,09,50,16.60
2013,08,25,09,51,16.70
2013,08,25,09,52,16.70
2013,08,25,09,53,16.70
2013,08,25,09,54,16.70
2013,08,25,09,55,16.80
2013,08,25,09,56,16.80
2013,08,25,09,57,16.70
2013,08,25,09,58,16.70
2013,08,25,09,59,16.60
2013,08,25,10,00,16.50
2013,08,25,10,01,16.40
2013,08,25,10,02,16.30
2013,08,25,10,03,16.20
2013,08,25,10,04,16.10
2013,08,25,10,05,16.10
2013,08,25,10,06,16.20
2013,08,25,10,07,16.10
2013,08,25,10,08,16.10
2013,08,25,10,09,16.10
2013,08,25,10,10,16.20
2013,08,25,10,11,16.20
2013,08,25,10,12,16.20
2013,08,25,10,13,16.30
2013,08,25,10,14,16.40
2013,08,25,10,15,16.50
2013,08,25,10,16,16.60
2013,08,25,10,17,16.60
2013,08,25,10,18,16.60
2013,08,25,10,19,16.60
2013,08,25,10,20,16.60
2013,08,25,10,21,16.60
2013,08,25,10,22,16.60
2013,08,25,10,23,16.60
2013,08,25,10,24,16.70
2013,08,25,10,25,16.70
2013,08,25,10,26,16.70
2013,08,25,10,27,16.70
2013,08,25,10,28,16.80
2013,08,25,10,29,16.70
2013,08,25,10,30,16.70
2013,08,25,10,31,16.80
2013,08,25,10,32,16.80
2013,08,25,10,33,16.90
2013,08,25,10,34,16.90
2013,08,25,10,35,17.00
2013,08,25,10,36,17.10
2013,08,25,10,37,17.20
2013,08,25,10,38,17.20
2013,08,25,10,39,17.30
2013,08,25,10,40,17.30
2013,08,25,10,41,17.30
2013,08,25,10,42,17.30
2013,08,25,10,43,17.20
2013,08,25,10,44,17.10
2013,08,25,10,45,17.10
2013,08,25,10,46,17.00
2013,08,25,10,47,16.90
2013,08,25,10,48,16.90
2013,08,25,10,49,17.00
2013,08,25,10,50,17.10
2013,08,25,10,51,17.10
2013,08,25,10,52,17.10
2013,08,25,10,53,17.10
2013,08,25,10,54,17.10
2013,08,25,10,55,17.00
2013,08,25,10,56,17.10
2013,08,25,10,57,17.00
2013,08,25,10,58,17.00
2013,08,25,10,59,17.00
2013,08,25,11,00,17.00
2013,08,25,11,01,16.90
2013,08,25,11,02,17.00
2013,08,25,11,03,17.00
2013,08,25,11,04,17.00
2013,08,25,11,05,17.10
2013,08,25,11,06,17.10
2013,08,25,11,07,17.10
2013,08,25,11,08,17.20
2013,08,25,11,09,17.20
2013,08,25,11,10,17.30
2013,08,25,11,11,17.30
2013,08,25,11,12,17.30
2013,08,25,11,13,17.30
2013,08,25,11,14,17.40
2013,08,25,11,15,17.50
2013,08,25,11,16,17.50
2013,08,25,11,17,17.60
2013,08,25,11,18,17.60
2013,08,25,11,19,17.70
2013,08,25,11,20,17.70
2013,08,25,11,21,17.60
2013,08,25,11,22,17.70
2013,08,25,11,23,17.70
2013,08,25,11,24,17.80
2013,08,25,11,25,17.90
2013,08,25,11,26,17.90
2013,08,25,11,27,18.00
2013,08,25,11,28,17.90
2013,08,25,11,29,18.00
2013,08,25,11,30,18.00
2013,08,25,11,31,18.00
2013,08,25,11,32,18.10
2013,08,25,11,33,18.10
2013,08,25,11,34,18.10
2013,08,25,11,35,18.10
2013,08,25,11,36,18.10
2013,08,25,11,37,18.20
2013,08,25,11,38,18.10
2013,08,25,11,39,18.10
2013,08,25,11,40,18.10
2013,08,25,11,41,18.10
2013,08,25,11,42,18.10
2013,08,25,11,43,18.00
2013,08,25,11,44,17.90
2013,08,25,11,45,18.00
2013,08,25,11,46,18.00
2013,08,25,11,47,17.90
2013,08,25,11,48,17.90
2013,08,25,11,49,17.80
2013,08,25,11,50,17.80
2013,08,25,11,51,17.70
2013,08,25,11,52,17.60
2013,08,25,11,53,17.60
2013,08,25,11,54,17.70
2013,08,25,11,55,17.70
2013,08,25,11,56,17.70
2013,08,25,11,57,17.80
2013,08,25,11,58,17.90
2013,08,25,11,59,17.90
2013,08,25,12,00,17.90
2013,08,25,12,01,18.00
2013,08,25,12,02,18.10
2013,08,25,12,03,18.10
2013,08,25,12,04,18.10
2013,08,25,12,05,18.10
2013,08,25,12,06,18.20
2013,08,25,12,07,18.20
2013,08,25,12,08,18.30
2013,08,25,12,09,18.40
2013,08,25,12,10,18.50
2013,08,25,12,11,18.50
2013,08,25,12,12,18.50
2013,08,25,12,13,18.50
2013,08,25,12,14,18.50
2013,08,25,12,15,18.40
2013,08,25,12,16,18.40
2013,08,25,12,17,18.30
2013,08,25,12,18,18.30
2013,08,25,12,19,18.30
2013,08,25,12,20,18.30
2013,08,25,12,21,18.30
2013,08,25,12,22,18.20
2013,08,25,12,23,18.20
2013,08,25,12,24,18.20
2013,08,25,12,25,18.10
2013,08,25,12,26,18.10
2013,08,25,12,27,18.10
2013,08,25,12,28,18.20
2013,08,25,12,29,18.20
2013,08,25,12,30,18.30
2013,08,25,12,31,18.30
2013,08,25,12,32,18.40
2013,08,25,12,33,18.40
2013,08,25,12,34,18.40
2013,08,25,12,35,18.40
2013,08,25,12,36,18.40
2013,08,25,12,37,18.40
2013,08,25,12,38,18.30
2013,08,25,12,39,18.30
2013,08,25,12,40,18.30
2013,08,25,12,41,18.40
2013,08,25,12,42,18.50
2013,08,25,12,43,18.50
2013,08,25,12,44,18.50
2013,08,25,12,45,18.50
2013,08,25,12,46,18.50
2013,08,25,12,47,18.40
2013,08,25,12,48,18.30
2013,08,25,12,49,18.40
2013,08,25,12,50,18.40
2013,08,25,12,51,18.40
2013,08,25,12,52,18.50
2013,08,25,12,53,18.60
2013,08,25,12,54,18.70
2013,08,25,12,55,18.70
2013,08,25,12,56,18.80
2013,08,25,12,57,18.80
2013,08,25,12,58,18.90
2013,08,25,12,59,18.90
2013,08,25,13,00,18.90
2013,08,25,13,01,18.90
2013,08,25,13,02,18.90
2013,08,25,13,03,18.90
2013,08,25,13,04,19.00
2013,08,25,13,05,19.10
2013,08,25,13,06,19.20
2013,08,25,13,07,19.30
2013,08,25,13,08,19.30
2013,08,25,13,09,19.30
2013,08,25,13,10,19.20
2013,08,25,13,11,19.20
2013,08,25,13,12,19.20
2013,08,25,13,13,19.30
2013,08,25,13,14,19.30
2013,08,25,13,15,19.40
2013,08,25,13,16,19.40
2013,08,25,13,17,19.50
2013,08,25,13,18,19.50
2013,08,25,13,19,19.60
2013,08,25,13,20,19.70
2013,08,25,13,21,19.80
2013,08,25,13,22,19.90
2013,08,25,13,23,19.90
2013,08,25,13,24,20.10
2013,08,25,13,25,20.20
2013,08,25,13,26,20.40
2013,08,25,13,27,20.50
2013,08,25,13,28,20.60
2013,08,25,13,29,20.70
2013,08,25,13,30,20.80
2013,08,25,13,31,20.80
2013,08,25,13,32,20.90
2013,08,25,13,33,21.00
2013,08,25,13,34,21.10
2013,08,25,13,35,21.10
2013,08,25,13,36,21.10
2013,08,25,13,37,21.10
2013,08,25,13,38,21.10
2013,08,25,13,39,21.20
2013,08,25,13,40,21.20
2013,08,25,13,41,21.20
2013,08,25,13,42,21.20
2013,08,25,13,43,21.10
2013,08,25,13,44,21.00
2013,08,25,13,45,20.90
2013,08,25,13,46,20.90
2013,08,25,13,47,20.80
2013,08,25,13,48,20.80
2013,08,25,13,49,20.70
2013,08,25,13,50,20.60
2013,08,25,13,51,20.50
2013,08,25,13,52,20.30
2013,08,25,13,53,20.20
2013,08,25,13,54,20.10
2013,08,25,13,55,20.00
2013,08,25,13,56,19.90
2013,08,25,13,57,19.80
2013,08,25,13,58,19.60
2013,08,25,13,59,19.50
2013,08,25,14,00,19.40
2013,08,25,14,01,19.30
2013,08,25,14,02,19.30
2013,08,25,14,03,19.30
2013,08,25,14,04,19.30
2013,08,25,14,05,19.50
2013,08,25,14,06,19.60
2013,08,25,14,07,19.70
2013,08,25,14,08,19.70
2013,08,25,14,09,19.70
2013,08,25,14,10,19.80
2013,08,25,14,11,19.80
2013,08,25,14,12,19.80
2013,08,25,14,13,19.80
2013,08,25,14,14,19.80
2013,08,25,14,15,19.90
2013,08,25,14,16,19.90
2013,08,25,14,17,19.90
2013,08,25,14,18,19.90
2013,08,25,14,19,19.90
2013,08,25,14,20,19.80
2013,08,25,14,21,19.70
2013,08,25,14,22,19.70
2013,08,25,14,23,19.60
2013,08,25,14,24,19.60
2013,08,25,14,25,19.50
2013,08,25,14,26,19.50
2013,08,25,14,27,19.40
2013,08,25,14,28,19.40
2013,08,25,14,29,19.30
2013,08,25,14,30,19.30
2013,08,25,14,31,19.40
2013,08,25,14,32,19.40
2013,08,25,14,33,19.60
2013,08,25,14,34,19.70
2013,08,25,14,35,19.80
2013,08,25,14,36,19.90
2013,08,25,14,37,19.90
2013,08,25,14,38,19.90
2013,08,25,14,39,20.00
2013,08,25,14,40,20.00
2013,08,25,14,41,20.10
2013,08,25,14,42,20.00
2013,08,25,14,43,20.00
2013,08,25,14,44,20.10
2013,08,25,14,45,20.10
2013,08,25,14,46,20.20
2013,08,25,14,47,20.20
2013,08,25,14,48,20.20
2013,08,25,14,49,20.10
2013,08,25,14,50,20.10
2013,08,25,14,51,20.20
2013,08,25,14,52,20.20
2013,08,25,14,53,20.30
2013,08,25,14,54,20.30
2013,08,25,14,55,20.30
2013,08,25,14,56,20.30
2013,08,25,14,57,20.30
2013,08,25,14,58,20.20
2013,08,25,14,59,20.10
2013,08,25,15,00,20.10
2013,08,25,15,01,20.10
2013,08,25,15,02,20.20
2013,08,25,15,03,20.20
2013,08,25,15,04,20.20
2013,08,25,15,05,20.10
2013,08,25,15,06,20.10
2013,08,25,15,07,20.00
2013,08,25,15,08,19.80
2013,08,25,15,09,19.70
2013,08,25,15,10,19.70
2013,08,25,15,11,19.60
2013,08,25,15,12,19.60
2013,08,25,15,13,19.60
2013,08,25,15,14,19.60
2013,08,25,15,15,19.60
2013,08,25,15,16,19.60
2013,08,25,15,17,19.50
2013,08,25,15,18,19.50
2013,08,25,15,19,19.50
2013,08,25,15,20,19.40
2013,08,25,15,21,19.40
2013,08,25,15,22,19.30
2013,08,25,15,23,19.30
2013,08,25,15,24,19.30
2013,08,25,15,25,19.30
2013,08,25,15,26,19.20
2013,08,25,15,27,19.10
2013,08,25,15,28,19.00
2013,08,25,15,29,18.90
2013,08,25,15,30,18.80
2013,08,25,15,31,18.70
2013,08,25,15,32,18.70
2013,08,25,15,33,18.60
2013,08,25,15,34,18.50
2013,08,25,15,35,18.40
2013,08,25,15,36,18.30
2013,08,25,15,37,18.20
2013,08,25,15,38,18.20
2013,08,25,15,39,18.10
2013,08,25,15,40,18.10
2013,08,25,15,41,18.10
2013,08,25,15,42,18.10
2013,08,25,15,43,18.10
2013,08,25,15,44,18.10
2013,08,25,15,45,18.10
2013,08,25,15,46,18.10
2013,08,25,15,47,18.10
2013,08,25,15,48,18.20
2013,08,25,15,49,18.20
2013,08,25,15,50,18.20
2013,08,25,15,51,18.30
2013,08,25,15,52,18.40
2013,08,25,15,53,18.50
2013,08,25,15,54,18.60
2013,08,25,15,55,18.70
2013,08,25,15,56,18.80
2013,08,25,15,57,18.90
2013,08,25,15,58,19.00
2013,08,25,15,59,19.10
2013,08,25,16,00,19.20
2013,08,25,16,01,19.20
2013,08,25,16,02,19.30
2013,08,25,16,03,19.30
2013,08,25,16,04,19.40
2013,08,25,16,05,19.60
2013,08,25,16,06,19.70
2013,08,25,16,07,19.80
2013,08,25,16,08,19.80
2013,08,25,16,09,19.80
2013,08,25,16,10,19.80
2013,08,25,16,11,19.80
2013,08,25,16,12,19.90
2013,08,25,16,13,19.90
2013,08,25,16,14,20.00
2013,08,25,16,15,20.10
2013,08,25,16,16,20.20
2013,08,25,16,17,20.30
2013,08,25,16,18,20.50
2013,08,25,16,19,20.60
2013,08,25,16,20,20.70
2013,08,25,16,21,20.70
2013,08,25,16,22,20.80
2013,08,25,16,23,20.80
2013,08,25,16,24,20.80
2013,08,25,16,25,20.70
2013,08,25,16,26,20.60
2013,08,25,16,27,20.60
2013,08,25,16,28,20.50
2013,08,25,16,29,20.40
2013,08,25,16,30,20.40
2013,08,25,16,31,20.40
2013,08,25,16,32,20.40
2013,08,25,16,33,20.30
2013,08,25,16,34,20.30
2013,08,25,16,35,20.30
2013,08,25,16,36,20.20
2013,08,25,16,37,20.20
2013,08,25,16,38,20.20
2013,08,25,16,39,20.20
2013,08,25,16,40,20.20
2013,08,25,16,41,20.30
2013,08,25,16,42,20.20
2013,08,25,16,43,20.20
2013,08,25,16,44,20.10
2013,08,25,16,45,20.10
2013,08,25,16,46,20.10
2013,08,25,16,47,20.10
2013,08,25,16,48,20.10
2013,08,25,16,49,20.10
2013,08,25,16,50,20.00
2013,08,25,16,51,20.10
2013,08,25,16,52,20.00
2013,08,25,16,53,20.10
2013,08,25,16,54,20.10
2013,08,25,16,55,20.10
2013,08,25,16,56,20.00
2013,08,25,16,57,20.00
2013,08,25,16,58,20.00
2013,08,25,16,59,20.00
2013,08,25,17,00,19.90
2013,08,25,17,01,19.90
2013,08,25,17,02,19.90
2013,08,25,17,03,19.90
2013,08,25,17,04,19.90
2013,08,25,17,05,19.90
2013,08,25,17,06,20.00
2013,08,25,17,07,20.00
2013,08,25,17,08,20.00
2013,08,25,17,09,20.10
2013,08,25,17,10,20.20
2013,08,25,17,11,20.30
2013,08,25,17,12,20.40
2013,08,25,17,13,20.50
2013,08,25,17,14,20.50
2013,08,25,17,15,20.60
2013,08,25,17,16,20.60
2013,08,25,17,17,20.70
2013,08,25,17,18,20.70
2013,08,25,17,19,20.80
2013,08,25,17,20,20.80
2013,08,25,17,21,20.80